Location: Dana
(41.8364°N, 106.7042°W)
Time: 02:20:30
(UTC+00:00)

Transit 4A - Pass Details

Date: 10 May 2026
Orbit: 860 x 980 km, 66.8° (Epoch: 6 June)

Event Time Altitude Azimuth Distance (km) Brightness Sun altitude
Rises 16:36:38 0° 223° (SW) 3,529 10.8 50.6°
Reaches altitude 10° 16:39:10 10° 227° (SW) 2,609 10.2 51.0°
Maximum altitude 16:45:07 55° 305° (NW) 1,119 8.7 52.0°
Drops below altitude 10° 16:51:19 10° 23° (NNE) 2,702 10.4 53.0°
Sets 16:53:59 0° 28° (NNE) 3,664 11.0 53.4°
